Simultaneous Nadir Overpasses (SNOs) Predictions

Prediction of SNOs between LANDSAT-8 and NOAA-19 Satellite Orbit:

Table of predicted SNOs for the next 14.0 days since TLE Epoch: 1/13/2024
Index Date (LANDSAT-8) Time (LANDSAT-8) Lat,Lon (LANDSAT-8) SZA (LANDSAT-8 ) Date (NOAA-19) Time (NOAA-19) Lat,Lon (NOAA-19) SZA (NOAA-19 ) Distance(km) Time Diff (sec)
1 01/14/2024 03:12:09 -80.87, -11.76 76.28 01/14/2024 03:12:15 -80.87, -11.84 76.28 1.43 6
2 01/16/2024 09:35:20 -80.86,-107.74 76.73 01/16/2024 09:35:26 -80.86,-107.82 76.73 1.58 6
3 01/18/2024 15:58:30 -80.86, 156.46 77.19 01/18/2024 15:58:36 -80.86, 156.47 77.18 0.92 6
4 01/20/2024 22:21:39 -80.87, 60.84 77.66 01/20/2024 22:21:46 -80.86, 60.68 77.67 2.93 7
5 01/23/2024 04:44:48 -80.87, -34.94 78.18 01/23/2024 04:44:55 -80.87, -34.84 78.17 1.85 7



Historial Predications of SNOs between LANDSAT-8 and NOAA-19
